Location: Grandview
(34.8900°N, 117.1058°W)
Time: 16:28:54
(UTC-07:00)

Vanguard 2 - All Passes

Search period start: 14 August 2018 00:00
Search period end: 24 August 2018 00:00
Orbit: 554 x 2938 km, 32.9° (Epoch: 13 August)

Date Brightness Start Highest point End Pass type
(mag) Time Alt. Az. Time Alt. Az. Time Alt. Az.
14 Aug - 10:55:07 10° SW 10:58:43 33° SSE 11:02:37 10° E daylight
14 Aug - 13:02:26 10° W 13:06:37 71° S 13:12:34 10° E daylight
14 Aug - 15:09:56 10° W 15:15:09 55° SSW 15:23:36 10° ESE daylight
14 Aug - 17:18:16 10° W 17:24:29 28° SSW 17:33:43 10° SSE daylight
15 Aug - 09:07:00 10° S 09:08:55 13° SSE 09:10:43 10° SE daylight
15 Aug - 11:12:53 10° WSW 11:16:41 45° SSE 11:20:53 10° E daylight
15 Aug - 13:20:27 10° W 13:24:42 70° S 13:30:48 10° E daylight
15 Aug - 15:28:02 10° W 15:33:16 45° SSW 15:41:32 10° SE daylight
15 Aug - 17:37:08 10° WSW 17:42:43 21° SSW 17:50:23 10° SSE daylight
16 Aug - 09:23:37 10° SSW 09:26:53 20° SSE 09:29:49 10° ESE daylight
16 Aug - 11:30:48 10° WSW 11:34:40 58° S 11:39:05 10° E daylight
16 Aug - 13:38:29 10° W 13:42:46 64° S 13:49:00 10° ESE daylight
16 Aug - 15:46:17 10° W 15:51:24 35° SSW 15:59:13 10° SE daylight
16 Aug - 17:56:51 10° SW 18:00:59 14° SSW 18:06:04 10° S daylight
17 Aug - 09:40:58 10° SW 09:44:51 29° SSE 09:48:19 10° E daylight
17 Aug - 11:48:48 10° WSW 11:52:42 66° S 11:57:15 10° E daylight
17 Aug - 13:56:33 10° W 14:00:51 54° S 14:07:06 10° ESE daylight
17 Aug - 16:04:43 10° WSW 16:09:33 26° SSW 16:16:32 10° SSE daylight
18 Aug - 07:52:08 10° S 07:54:43 13° SSE 07:56:58 10° SE daylight
18 Aug - 09:58:40 10° SW 10:02:51 40° SSE 10:06:34 10° E daylight
18 Aug - 12:06:51 10° W 12:10:45 68° S 12:15:24 10° E daylight
18 Aug - 14:14:39 10° W 14:18:55 42° SSW 14:25:03 10° SE daylight
18 Aug - 16:23:33 10° WSW 16:27:44 18° SSW 16:33:18 10° SSE daylight
19 Aug - 08:08:40 10° SSW 08:12:48 20° SSE 08:16:05 10° ESE daylight
19 Aug - 10:16:35 10° WSW 10:20:52 52° S 10:24:43 10° E daylight
19 Aug - 12:24:54 10° W 12:28:49 64° S 12:33:31 10° ESE daylight
19 Aug - 14:32:52 10° W 14:36:59 32° SSW 14:42:46 10° SE daylight
19 Aug - 16:43:29 10° SW 16:45:58 12° SSW 16:48:50 10° S daylight
20 Aug - 08:25:57 10° SW 08:30:52 29° SSE 08:34:36 10° E daylight
20 Aug - 10:34:36 10° WSW 10:38:54 62° S 10:42:50 10° E daylight
20 Aug - 12:42:59 10° W 12:46:52 54° S 12:51:36 10° ESE daylight
20 Aug - 14:51:18 10° WSW 14:55:06 23° SSW 15:00:09 10° SSE daylight
21 Aug - 06:36:09 10° S 06:40:18 15° SSE 06:43:37 10° ESE daylight
21 Aug - 08:43:36 10° SW 08:48:55 39° SSE 08:52:51 10° E daylight
21 Aug - 10:52:42 10° W 10:56:57 68° S 11:00:55 10° E daylight
21 Aug - 13:01:07 10° W 13:04:53 42° SSW 13:09:33 10° ESE daylight
21 Aug - 15:10:11 10° WSW 15:13:13 16° SSW 15:16:56 10° SSE daylight
22 Aug - 06:52:43 10° SSW 06:58:28 23° SSE 07:02:39 10° ESE daylight
22 Aug - 09:01:31 10° WSW 09:06:58 51° SSE 09:10:59 10° E daylight
22 Aug - 11:10:49 10° W 11:15:00 66° S 11:18:59 10° ESE daylight
22 Aug - 13:19:20 10° W 13:22:55 31° SSW 13:27:17 10° SE daylight
23 Aug - 05:04:15 10° S 05:07:17 12° SSE 05:09:55 10° SE visible
23 Aug - 07:09:56 10° SW 07:16:37 31° SSE 07:21:10 10° E daylight
23 Aug - 09:19:34 10° WSW 09:25:01 61° S 09:29:04 10° E daylight
23 Aug - 11:28:57 10° W 11:33:02 57° S 11:37:01 10° ESE daylight
23 Aug - 13:37:45 10° WSW 13:40:56 21° SSW 13:44:43 10° SSE daylight
